Location: Altenst�hlen
(53.5567°N, 8.9425°E)
Time: 06:09:42
(UTC+00:00)

CENTAUR R/B - Pass Details

Date: 23 October 2019
Orbit: 781 x 1407 km, 63.4° (Epoch: 10 November)

Event Time Altitude Azimuth Distance (km) Brightness Sun altitude
Rises 18:48:16 0° 213° (SSW) 3,489 5.6 -23.9°
Reaches altitude 10° 18:50:37 10° 210° (SSW) 2,622 4.9 -24.3°
Maximum altitude 18:56:42 67° 130° (SE) 1,114 2.5 -25.1°
Enters shadow 18:58:27 49° 71° (ENE) 1,344 2.8 -25.4°
